Regional Weather Roundup
Issued by NWS Northern Indiana

Home | Current Version | Previous Version | Graphics & Text | Print | Product List | Glossary On
Versions: 1 2 3 4 5 6 7 8 9 10 11 12 13 14 15 16 17 18 19 20 21 22 23 24 25 26 27 28 29 30 31 32 33 34 35 36 37 38 39 40 41 42 43 44 45 46 47 48 49 50
000
ASUS43 KIWX 151600
RWRIWX

KIWX WEATHER ROUNDUP
NATIONAL WEATHER SERVICE NORTHERN INDIANA
1200 PM EDT TUE APR 15 2014

NOTE: "FAIR" INDICATES FEW OR NO CLOUDS BELOW 12,000 FEET WITH NO
SIGNIFICANT WEATHER AND/OR OBSTRUCTIONS TO VISIBILITY.

* THESE STATIONS ARE NOT UNDER NWS QUALITY CONTROL. THEY ALSO MAY NOT
  REPORT WEATHER SUCH AS PRECIPITATION OR FOG.

INZ001>027-151700-
NORTHERN INDIANA

CITY           SKY/WX    TMP DP  RH WIND       PRES   REMARKS
GARY*          PTSUNNY   32  16  51 N14G25    30.15R WCI  22
VALPARAISO     MIX PCPN  30  14  51 N14G24    30.12R WCI  19
SOUTH BEND     PTSUNNY   30  14  51 NW21G29   30.10R WCI  17
ELKHART*       PTSUNNY   30  10  43 NW16G28   30.08R WCI  19
GOSHEN         CLOUDY    30  16  56 NW18G26   30.07R WCI  18
ANGOLA*        CLOUDY    27  19  74 NW10      30.03R WCI  17
FORT WAYNE     PTSUNNY   31  16  54 NW17G24   30.05R WCI  19

$$
INZ028>050-151700-
CENTRAL INDIANA

CITY           SKY/WX    TMP DP  RH WIND       PRES   REMARKS
LAFAYETTE      PTSUNNY   32  18  56 NW18G26   30.14R WCI  20
KOKOMO*        PTSUNNY   34  18  51 N16G24    30.09R WCI  23
MUNCIE*        PTSUNNY   33  21  61 NW17      30.06R WCI  22
INDIANAPOLIS   LGT SNOW  28  26  92 NW13      30.11R FOG     WCI  17

$$
MIZ043>046-050>051-056>058-064>065-071>073-077>080-151700-
SOUTHWEST LOWER MICHIGAN

CITY           SKY/WX    TMP DP  RH WIND       PRES   REMARKS
BATTLE CREEK   CLOUDY    28  13  53 NW18G26   30.03R WCI  15
BENTON HARBOR  PTSUNNY   29  13  51 NW10G24   30.11R WCI  20
COLDWATER*     CLOUDY    28  16  61 NW18      30.02R WCI  15
HILLSDALE*     CLOUDY    27  17  64 NW16G26   29.99R WCI  15
HOLLAND        MOSUNNY   30  13  49 NW16G25   30.09R WCI  19
GRAND RAPIDS   PTSUNNY   29  12  49 NW18G28   30.04R WCI  16
KALAMAZOO      CLOUDY    29  14  53 N21G26    30.05R WCI  16
STURGIS*       CLOUDY    27  14  59 NW18G25   30.04R WCI  13
THREE RIVERS*  CLOUDY    29  15  54 NW18G26   30.06R WCI  17

$$
OHZ001>008-015>018-024>025-151700-
NORTHWEST OHIO

CITY           SKY/WX    TMP DP  RH WIND       PRES   REMARKS
DEFIANCE       CLOUDY    30  17  58 NW12G23   30.04R WCI  20
FINDLAY        CLOUDY    29  19  66 NW18      30.00R WCI  16
TOLEDO EXPRESS CLOUDY    29  17  61 NW17      30.00S WCI  17
TOLEDO METCALF FLURRIES  29  19  66 NW17      30.01R WCI  17
LIMA           CLOUDY    30  20  66 NW20G29   30.01R WCI  17

$$
&&



USA.gov is the U.S. government's official web portal to all federal, state and local government web resources and services.